GFSSE_sfc_wetblb_000.txt.gz
Wetbulb
71.95 74.56 77.12 76.75 76.90 76.72 77.56 77.89 78.32 78.44 78.18 78.16 78.16 78.99 79.15 79.36 79.27 79.22 79.26 79.20 78.65 78.61 78.19 78.21 77.89 77.16 77.03 77.02 76.75 76.46 76.31 75.99 75.80 75.25 75.46 75.74 75.88 75.04 74.08 74.38 74.78 72.60 73.86
74.32 75.25 77.13 77.59 77.85 78.06 78.12 78.61 78.48 78.32 78.40 78.55 78.84 79.02 79.41 79.33 79.41 79.34 79.49 79.02 78.63 78.66 77.99 78.08 77.70 77.31 77.30 76.99 76.14 75.68 75.94 75.44 74.90 74.74 74.90 75.66 75.64 74.72 74.51 74.61 74.29 73.23 74.21
74.76 75.78 76.61 78.21 78.75 78.31 78.30 78.13 78.29 78.84 78.97 78.81 78.90 79.17 79.40 79.50 79.43 79.31 79.27 78.52 78.50 77.95 77.49 77.54 77.51 77.38 76.66 76.66 76.25 75.59 74.98 75.65 74.90 74.73 74.38 73.94 74.61 75.08 75.25 75.08 74.36 74.36 74.23
75.05 75.40 76.56 78.34 78.96 78.52 78.53 78.48 78.62 79.08 79.24 79.49 79.62 79.51 79.61 79.81 79.55 79.00 77.81 77.78 77.67 77.65 77.41 77.00 76.70 76.73 76.26 76.14 75.91 76.04 75.48 75.20 74.46 73.74 73.53 74.05 73.76 74.75 74.78 74.25 74.12 74.41 73.07
74.85 75.76 76.51 78.64 78.88 78.56 78.98 79.31 79.20 79.24 79.22 79.44 79.77 79.58 79.76 79.46 78.76 78.14 77.74 77.55 77.65 77.49 77.08 76.59 76.23 76.32 75.98 75.57 75.39 75.87 75.25 75.74 75.13 73.67 73.61 72.68 72.10 74.64 74.49 73.70 73.16 74.21 73.50
75.38 76.43 78.66 79.20 78.77 78.99 79.41 79.61 79.16 79.10 78.96 79.45 79.61 79.13 78.93 78.72 77.69 77.80 77.80 77.74 77.51 77.16 76.72 76.48 76.15 75.95 75.79 75.78 75.77 75.51 75.28 75.49 74.32 73.46 73.54 73.63 73.15 74.28 74.30 74.16 73.90 74.10 74.31
75.19 76.78 77.00 78.66 78.90 78.76 79.42 79.94 79.84 79.52 79.27 79.07 79.14 78.80 79.31 78.99 78.06 77.91 77.64 77.23 76.98 76.65 76.54 76.23 75.73 75.73 75.75 75.77 76.13 75.68 75.17 75.64 72.86 72.98 72.98 72.95 73.58 75.51 75.06 75.20 73.84 74.26 73.43
75.50 76.99 77.13 78.54 78.97 79.10 79.33 79.37 79.94 79.68 79.21 79.02 79.00 78.95 79.16 78.78 78.39 77.76 77.31 77.07 76.65 76.15 76.12 75.65 76.12 76.20 76.29 76.25 76.35 76.02 75.77 75.22 73.93 72.76 73.11 72.61 75.08 75.98 74.69 74.70 74.88 74.57 73.54
76.76 76.99 77.40 77.14 77.75 79.32 79.69 79.76 79.35 79.32 79.01 79.05 79.15 78.96 78.43 78.21 77.68 77.47 77.39 77.09 76.73 76.51 76.09 76.15 76.62 76.69 76.82 77.08 76.77 76.32 75.82 75.36 73.66 73.42 74.14 73.63 76.58 76.02 74.91 74.60 74.62 74.47 74.24
75.58 76.82 76.91 77.14 77.17 77.39 78.15 79.56 78.87 79.41 79.07 78.68 78.83 78.37 78.35 77.80 77.34 77.12 76.78 77.81 77.01 76.85 76.54 76.09 76.66 76.92 77.05 76.77 76.55 76.39 76.37 76.10 73.72 73.19 72.66 73.42 76.38 76.45 74.86 74.44 74.43 75.00 74.79
74.45 75.05 75.63 76.31 76.50 76.82 77.47 78.16 79.23 78.72 79.20 78.86 78.40 78.64 78.48 74.86 73.93 71.34 74.01 74.47 75.84 76.64 76.92 76.42 76.68 76.62 77.09 76.42 76.22 76.64 76.74 74.36 72.68 73.61 73.42 74.67 76.10 76.88 75.82 74.99 73.65 74.00 74.95
72.78 73.70 74.59 74.58 75.17 76.19 78.10 75.59 75.59 76.79 76.71 76.21 76.03 75.74 74.80 73.20 72.81 74.26 73.28 72.67 74.37 76.64 76.83 76.33 76.34 76.08 75.21 72.61 71.55 74.42 74.10 74.06 72.84 73.28 72.90 75.50 76.22 76.56 76.17 75.80 74.54 73.63 73.74
73.03 73.89 74.20 75.14 74.97 75.49 75.98 75.05 75.06 75.01 75.48 75.29 74.64 74.27 73.98 73.14 73.09 72.25 71.83 72.52 72.33 74.61 73.71 75.02 74.60 73.71 73.06 71.90 71.22 70.20 71.43 72.41 72.40 73.09 72.84 75.16 76.11 76.58 76.83 76.03 75.26 74.50 74.04
72.12 72.91 74.24 74.74 74.72 74.90 75.13 75.33 75.38 74.28 74.31 74.36 74.04 73.93 73.37 71.98 70.86 72.07 71.69 72.39 72.21 72.26 72.03 72.48 72.05 72.20 71.69 71.32 70.93 71.54 71.28 70.12 68.73 72.82 73.45 75.86 75.70 76.38 77.10 76.40 75.85 75.16 74.70
71.44 72.49 73.79 75.03 74.44 74.36 74.58 74.53 74.47 74.67 74.87 74.35 73.93 74.23 73.67 72.28 71.62 73.01 71.81 72.43 71.83 72.31 71.19 71.28 70.48 70.78 70.89 71.09 71.83 71.46 71.34 71.10 69.89 70.56 73.09 76.43 76.18 76.31 77.05 76.94 76.85 75.91 75.51
72.03 73.35 74.58 74.57 74.33 73.97 73.47 73.10 73.41 72.99 73.09 73.40 73.09 73.65 73.92 72.66 71.71 72.34 71.34 70.94 70.71 71.07 71.67 71.31 70.82 70.48 70.21 70.31 70.66 71.09 71.11 71.04 70.81 69.37 72.85 73.46 76.70 76.26 76.70 77.96 77.65 77.30 75.96
70.62 73.23 73.24 73.26 74.68 74.09 73.48 74.04 72.91 73.89 73.49 72.63 72.56 72.69 72.23 73.19 72.39 71.52 70.32 69.78 70.10 70.74 70.78 70.70 70.05 69.85 69.24 70.14 69.38 70.18 70.35 70.34 70.59 69.91 70.64 73.27 73.94 76.84 76.20 76.92 77.92 77.56 77.54
70.79 72.47 73.03 75.01 74.78 73.43 73.72 73.89 74.22 73.68 72.85 73.02 72.49 72.31 72.69 73.00 72.59 71.26 69.42 69.49 70.44 70.14 70.03 68.81 67.69 67.44 67.46 67.85 67.71 67.80 68.02 68.72 69.78 70.03 70.35 71.43 73.12 73.98 75.52 76.06 76.20 77.50 77.75
70.48 71.85 72.29 73.52 73.98 73.99 74.12 74.41 73.87 73.79 73.34 73.03 73.06 71.73 72.50 71.98 72.54 71.09 69.54 70.40 70.19 68.91 68.30 68.00 67.62 67.08 66.87 66.97 67.58 67.64 67.06 66.92 68.43 70.74 70.01 70.32 71.18 72.68 72.80 74.95 75.06 75.68 77.23
70.27 70.87 70.87 70.83 73.31 74.17 73.80 73.98 73.51 73.36 71.96 72.67 72.63 71.26 72.35 71.45 72.83 72.56 70.21 70.29 70.05 69.24 68.52 68.23 67.60 67.01 67.01 66.81 68.43 68.96 67.80 67.96 68.09 67.98 68.63 69.82 70.13 71.28 72.89 73.05 72.92 73.76 75.45
70.58 70.47 70.32 70.91 71.98 73.24 72.08 71.18 70.80 70.05 70.70 71.26 71.67 72.48 72.59 71.82 72.04 70.98 70.70 70.15 69.98 68.63 68.21 68.27 67.24 66.52 65.86 66.43 65.22 64.33 64.83 66.57 66.34 67.42 68.31 68.41 69.25 70.24 70.48 72.12 72.47 72.44 73.58
70.11 70.20 71.05 70.86 72.45 72.64 72.41 71.29 71.56 71.29 71.54 71.98 72.59 72.97 72.40 71.88 72.10 71.40 70.76 69.98 69.03 68.14 66.84 66.30 66.01 65.48 65.70 66.70 64.14 61.40 58.93 61.17 63.42 65.32 66.40 67.53 68.24 68.74 69.05 70.22 70.51 72.07 71.75
69.97 71.25 71.48 72.26 72.63 72.98 72.74 72.35 72.26 71.42 70.39 69.15 69.67 70.05 68.98 68.03 68.20 68.70 67.86 66.60 66.43 66.35 65.45 65.50 65.70 64.99 63.77 65.07 65.11 62.42 58.81 56.56 60.37 62.58 63.94 65.28 66.30 67.15 67.69 68.40 69.40 70.34 71.12
71.08 72.90 72.47 73.23 73.48 73.34 72.47 72.36 70.43 67.82 63.58 64.79 66.68 67.36 65.69 65.81 67.00 66.85 66.46 67.01 66.86 66.12 65.45 65.79 67.71 65.97 64.84 62.85 63.99 65.50 63.44 62.60 58.55 57.85 61.49 62.90 64.46 64.85 65.83 66.93 68.88 69.54 69.07
72.20 73.29 73.33 73.51 73.23 73.37 71.85 72.26 66.21 61.41 62.44 65.29 65.21 64.26 63.36 63.63 65.46 66.41 67.83 66.75 65.74 65.34 64.92 65.77 64.97 64.72 64.73 63.82 62.91 62.41 61.68 61.63 60.56 58.39 56.28 58.84 61.43 62.97 64.73 66.02 67.08 68.16 68.84
72.58 73.34 73.61 72.32 71.30 69.11 67.99 64.30 61.42 62.13 61.89 63.00 62.79 61.26 61.96 60.68 64.92 66.91 66.30 64.88 65.16 64.37 64.70 64.66 64.90 64.39 64.10 63.86 63.06 62.02 60.70 59.00 58.56 58.00 56.72 57.30 58.52 61.03 63.04 64.14 65.26 66.43 68.36

GFSSE_sfc_wetblb_003.txt.gz
Wetbulb
71.45 73.77 76.32 77.03 76.88 76.95 76.09 75.89 76.00 76.02 76.40 76.78 78.12 78.18 78.50 78.34 78.80 78.77 78.71 78.01 78.03 78.00 77.72 77.46 76.78 76.53 76.66 76.48 76.26 76.02 75.75 75.29 75.30 75.02 75.43 75.50 74.68 74.22 74.42 74.29 73.98 72.36 73.81
72.54 74.32 77.00 76.99 76.81 76.45 76.57 76.67 76.56 76.86 77.45 77.97 78.57 78.59 78.84 78.42 78.77 78.93 78.01 77.56 77.88 77.78 77.43 77.12 76.50 76.81 76.42 75.95 75.37 75.34 75.19 74.94 74.86 74.77 75.23 75.47 74.77 74.07 73.96 74.37 74.01 73.05 73.21
73.52 74.07 75.23 77.12 77.31 77.59 77.55 77.70 77.51 77.53 77.19 78.47 78.52 78.93 79.03 78.70 78.73 78.33 77.92 77.79 77.41 77.12 77.06 76.97 76.56 76.35 76.16 75.95 75.43 74.51 74.54 74.73 74.73 74.57 74.96 73.99 73.82 74.31 74.53 74.06 74.05 73.76 74.17
74.82 74.54 75.82 77.23 78.34 77.77 77.57 77.62 78.41 77.93 77.79 78.87 78.99 79.30 79.26 78.94 79.27 78.53 77.76 77.37 77.04 76.85 76.66 76.31 76.09 75.57 75.43 75.45 75.39 75.27 74.73 74.21 74.54 74.13 73.52 73.82 73.27 74.20 74.67 73.60 73.24 73.41 73.97
74.53 75.03 76.37 78.45 77.76 78.11 78.34 78.66 79.04 79.04 78.83 79.41 79.24 79.28 79.38 79.10 78.24 77.50 77.03 76.78 76.77 76.53 76.23 75.90 75.49 75.12 75.07 75.04 75.00 75.20 75.28 74.74 74.26 73.43 73.32 72.48 71.89 74.22 74.03 73.39 72.61 73.34 72.47
74.80 76.08 77.74 78.52 78.28 78.64 78.37 79.32 79.26 79.36 79.36 79.29 79.62 79.38 78.62 78.13 77.78 77.31 77.12 76.94 76.75 76.31 75.87 75.32 75.04 74.88 74.74 74.85 75.14 75.02 74.75 75.16 74.40 72.54 72.19 72.82 72.88 74.03 74.34 73.16 73.16 73.63 73.45
75.33 76.27 76.92 79.04 79.19 79.58 79.45 79.00 79.07 78.98 79.30 79.45 79.23 78.41 78.37 77.80 77.37 77.28 77.20 76.81 76.40 75.98 75.62 75.51 75.43 75.40 75.43 75.09 75.19 75.66 74.57 75.30 72.28 72.04 72.07 72.56 72.86 74.86 74.83 74.67 73.93 74.38 74.37
75.80 76.38 76.80 78.71 78.91 79.37 79.16 79.39 79.28 78.89 78.28 78.72 78.09 78.03 78.07 78.17 78.12 77.44 76.81 76.32 75.93 75.37 75.45 75.57 75.90 75.90 75.83 75.95 76.00 75.65 75.42 75.16 74.10 72.03 72.35 72.38 74.17 75.52 74.99 75.09 74.05 73.80 73.92
76.50 76.31 76.31 76.71 77.51 78.68 79.61 79.53 79.15 78.60 78.42 77.99 78.19 78.33 77.80 77.89 77.68 77.22 76.76 76.32 75.98 75.68 75.93 75.96 76.48 76.49 76.43 76.50 76.59 75.80 75.65 75.39 72.97 72.55 73.05 71.50 75.54 75.51 74.72 74.52 75.30 74.29 74.02
76.06 76.38 75.98 76.08 76.30 76.86 77.45 78.82 78.46 78.72 78.12 77.74 77.86 77.62 77.73 77.44 76.99 76.65 76.85 77.18 76.49 76.85 76.76 76.48 76.23 76.62 76.41 76.31 76.40 75.74 75.43 75.91 72.47 72.31 72.53 73.18 75.40 75.72 75.13 74.42 74.86 74.76 74.13
75.11 75.22 76.13 76.10 75.85 76.10 76.25 77.08 78.04 78.01 78.18 78.16 77.84 77.93 78.36 74.04 74.02 73.02 74.03 75.20 75.15 76.43 76.76 75.75 75.99 75.84 75.61 75.46 75.87 75.28 75.30 72.75 72.05 72.73 72.97 74.03 75.22 76.05 75.46 74.63 74.57 74.66 74.88
72.78 74.33 74.66 75.59 75.74 75.81 77.58 76.01 75.74 75.21 75.44 74.62 74.59 75.35 73.80 72.37 71.99 72.50 73.47 73.74 73.68 75.57 76.47 75.70 75.49 75.82 75.09 72.11 70.73 72.30 71.28 72.57 72.66 71.42 72.64 74.46 75.56 75.76 76.09 74.87 74.28 74.24 75.26
72.57 73.94 74.46 74.59 75.38 75.22 75.56 75.26 75.02 74.79 74.13 74.03 74.34 74.03 73.59 72.11 71.81 71.83 70.31 71.45 71.67 73.74 73.15 73.35 73.08 72.56 71.93 71.45 71.35 70.49 70.44 70.70 70.72 72.28 73.35 74.77 75.81 75.72 76.70 75.92 74.76 73.98 74.02
72.39 73.06 74.08 74.89 74.73 74.86 74.96 74.43 74.10 74.04 73.63 73.84 73.29 73.55 72.45 70.29 70.00 69.45 70.40 70.95 71.03 71.66 70.88 70.90 70.85 70.70 71.13 71.34 70.83 70.66 70.99 71.02 69.63 69.21 72.50 75.36 75.74 75.60 76.45 76.81 75.73 74.95 74.17
72.03 73.09 73.78 74.96 74.60 74.97 73.89 74.42 74.03 73.62 73.87 73.72 73.75 73.52 73.10 70.65 69.90 70.82 71.07 71.17 70.35 70.82 70.25 70.08 69.90 69.94 69.73 69.83 70.25 70.78 70.51 70.50 70.91 69.53 71.38 75.59 76.13 76.41 76.05 76.64 76.54 75.75 74.90
72.19 72.43 73.87 74.78 74.20 74.18 73.31 72.98 73.37 73.69 73.31 73.45 72.53 73.10 73.43 71.17 70.40 71.16 70.19 70.12 69.55 70.19 69.98 70.39 69.65 69.20 68.93 69.31 69.34 69.57 69.35 69.83 70.37 69.94 69.33 72.30 76.51 76.94 76.84 76.41 76.81 76.36 75.31
71.69 72.42 73.51 74.51 73.48 73.79 73.04 71.47 71.36 72.24 72.35 72.16 72.31 72.53 72.92 72.38 71.06 70.68 69.74 68.48 68.95 69.54 69.26 69.29 68.25 67.38 67.33 67.89 67.62 68.74 68.52 68.78 69.06 69.89 69.54 70.76 73.00 76.10 77.10 76.92 76.53 76.15 76.56
71.56 72.28 73.60 75.20 74.40 73.64 73.03 72.81 72.53 72.87 72.30 71.91 71.78 71.37 71.64 72.41 71.89 70.48 68.50 68.73 69.33 68.82 68.73 67.80 66.54 66.20 66.27 66.16 66.04 66.65 66.88 67.40 67.60 68.85 69.64 69.80 71.43 73.40 75.14 76.84 76.41 75.83 76.18
70.76 72.38 72.75 73.67 74.03 73.18 73.40 73.31 72.31 72.60 72.20 72.05 72.03 71.37 71.38 71.31 71.95 70.42 68.18 68.61 68.66 68.37 67.73 66.86 65.96 65.57 65.16 65.39 66.08 66.61 66.65 66.65 67.15 68.90 68.26 68.73 69.14 71.47 72.41 74.45 75.38 75.37 75.80
70.61 72.41 72.94 73.30 73.42 73.12 73.30 72.60 72.49 72.17 71.97 72.35 71.81 70.87 70.93 71.33 71.61 70.74 70.53 69.72 69.25 68.05 67.06 66.33 65.81 65.39 65.12 65.18 66.77 67.06 66.22 66.40 66.76 66.90 67.47 68.59 68.69 69.20 71.04 72.10 72.05 72.43 74.88
69.54 70.80 70.71 70.91 72.37 72.89 71.71 71.08 70.47 70.37 70.37 70.51 71.36 71.83 71.38 70.65 71.58 70.21 69.52 69.13 68.77 67.58 66.99 66.97 65.98 65.10 64.98 65.01 63.93 63.48 63.48 63.51 64.10 65.08 66.66 67.35 67.89 68.92 69.83 71.03 71.39 71.14 72.32
68.57 69.70 69.62 70.35 71.31 72.94 71.75 70.67 70.89 70.31 70.19 70.61 71.04 71.94 72.06 71.31 71.08 70.48 69.67 68.86 68.66 67.20 65.95 65.37 65.42 64.40 64.71 65.59 62.81 59.89 58.18 60.33 61.58 63.33 63.34 66.17 66.06 67.47 68.52 69.09 69.91 70.69 71.53
68.36 69.14 69.97 69.91 71.45 72.58 71.80 70.98 71.14 71.01 70.29 69.43 69.49 70.76 70.91 71.22 71.23 70.04 69.03 68.05 65.70 65.72 64.70 64.43 64.56 63.95 62.66 64.19 64.29 61.30 56.76 55.35 58.78 61.72 62.76 62.81 63.71 63.75 65.30 67.00 68.41 69.65 70.14
68.63 70.17 70.34 70.41 71.74 72.26 71.91 70.70 69.85 69.20 67.17 65.60 66.54 68.61 68.04 67.29 66.42 67.42 66.44 65.34 65.90 65.22 64.77 64.63 66.61 65.05 63.71 61.50 62.79 64.50 62.52 61.65 57.08 56.33 59.83 61.05 61.88 62.14 63.09 64.59 66.03 66.97 68.59
69.68 70.51 70.83 71.25 71.77 72.23 72.00 71.93 70.33 66.43 63.94 63.58 64.75 66.08 63.95 63.80 64.70 65.38 65.47 66.37 65.26 64.66 64.03 64.63 63.93 64.07 63.80 62.58 61.58 61.33 60.46 59.93 59.58 56.78 54.35 56.67 59.44 60.79 62.56 63.75 63.78 65.05 66.79
70.30 71.33 71.87 71.35 71.96 72.14 72.10 71.70 68.91 64.35 62.41 63.44 62.91 62.40 60.61 60.27 61.62 64.68 66.58 64.79 64.20 63.65 63.71 63.73 63.53 63.66 63.19 63.27 62.26 60.88 58.95 57.15 56.83 56.54 55.19 55.23 55.85 58.27 60.60 61.61 62.05 63.72 65.41

GFSSE_sfc_wetblb_006.txt.gz
Wetbulb
71.13 73.06 75.74 76.68 76.42 76.04 76.34 76.21 75.84 76.10 76.42 76.81 77.09 77.68 78.12 78.08 78.20 78.44 78.20 77.77 77.67 77.70 77.22 76.87 76.62 76.78 76.58 76.22 76.01 75.72 75.73 75.51 75.25 74.94 75.37 74.90 74.32 74.26 74.24 74.14 73.86 73.20 74.34
72.12 73.69 76.25 76.96 76.32 76.32 76.02 76.14 76.25 76.13 76.77 77.69 77.89 78.32 78.18 78.02 77.65 77.92 77.95 77.78 77.58 77.35 76.87 76.50 76.64 76.53 75.82 75.30 75.30 75.10 74.83 75.06 75.08 75.25 75.63 75.35 74.35 73.41 74.36 73.66 74.04 72.52 73.27
72.33 73.64 75.18 77.49 76.55 76.34 76.58 76.40 76.33 76.48 77.27 77.97 78.43 78.44 77.91 77.87 77.98 77.52 77.27 77.51 77.23 76.86 76.59 76.58 76.60 76.39 75.93 75.22 74.59 73.72 74.12 74.75 74.75 75.08 75.67 74.33 73.99 74.78 73.96 73.73 73.93 74.00 73.71
73.69 73.80 74.61 77.22 77.20 76.84 76.89 77.52 77.20 77.05 77.62 78.22 78.46 78.74 78.23 78.26 77.71 77.61 77.50 77.00 76.78 76.62 76.37 76.27 75.91 75.39 75.14 74.89 74.69 74.47 74.09 73.81 74.48 74.56 74.20 73.99 73.58 74.70 74.13 73.12 74.10 73.76 73.98
74.08 74.75 75.40 77.32 77.54 77.55 77.82 77.67 78.57 78.41 78.27 78.23 78.47 78.22 78.36 78.32 77.85 77.32 76.88 76.73 76.59 76.29 76.05 75.50 75.39 75.22 74.81 74.78 74.74 74.89 74.78 74.13 73.78 73.48 73.66 73.57 73.57 74.05 74.09 72.90 73.72 73.09 73.78
74.34 74.99 77.20 77.75 77.74 77.84 77.86 78.42 78.06 78.13 78.75 78.70 78.93 78.06 78.12 77.58 77.10 76.89 76.36 76.44 76.02 75.64 75.20 74.95 74.89 74.95 75.06 75.11 75.26 75.24 74.66 74.43 74.08 73.08 73.22 73.48 73.94 74.17 73.90 71.97 73.20 72.41 72.59
74.68 75.63 76.21 78.39 78.30 77.92 77.98 78.18 78.73 78.68 78.57 78.73 78.69 77.91 77.77 77.51 77.08 76.88 76.66 76.19 75.83 75.44 75.25 75.09 75.36 75.42 75.53 75.33 75.68 75.76 75.15 74.77 73.13 72.99 73.09 73.44 73.96 74.49 74.28 73.68 73.56 73.74 73.45
75.12 75.83 76.06 77.95 78.12 78.15 78.44 78.34 78.55 78.67 78.56 78.73 78.16 77.72 77.63 77.56 77.24 76.85 76.47 75.67 75.22 75.05 75.22 75.39 75.75 76.00 75.98 76.04 76.19 75.56 75.24 75.29 74.48 73.22 73.31 73.59 73.81 74.74 74.92 74.31 73.50 74.03 74.02
76.10 75.62 76.12 76.41 77.41 78.45 79.00 78.60 78.55 78.32 77.78 77.91 77.25 77.82 77.78 77.44 77.26 76.96 76.69 76.22 75.64 75.58 75.80 76.22 76.11 76.37 76.25 76.33 75.90 75.47 75.29 75.59 74.58 73.64 73.19 72.98 74.16 75.01 74.28 74.68 73.84 73.52 73.93
75.51 75.70 75.54 75.78 76.17 76.00 76.42 77.58 77.69 77.84 77.52 77.49 77.75 77.54 77.56 77.45 77.05 76.75 76.13 76.31 76.47 76.53 76.95 76.78 75.85 75.49 75.96 74.89 75.18 75.02 74.33 74.45 74.31 73.76 74.33 73.16 73.74 75.02 75.15 74.19 75.31 74.16 73.68
74.39 75.13 75.48 75.49 74.86 75.79 76.20 76.82 77.29 77.68 77.38 77.28 76.84 77.45 77.36 75.16 75.24 75.86 74.12 75.45 76.04 75.97 76.10 76.69 75.69 75.83 76.10 75.33 74.89 75.00 74.59 74.77 73.89 74.07 73.93 73.80 74.83 75.03 75.90 74.55 74.98 74.40 74.20
72.14 74.14 74.88 75.25 75.40 75.73 77.42 76.20 75.31 75.44 75.74 75.62 75.86 75.36 75.55 74.24 73.90 71.50 74.34 74.49 74.48 74.39 75.94 76.06 75.27 75.81 74.61 73.22 72.47 72.88 71.89 72.82 73.90 74.05 73.51 74.31 75.00 74.82 75.50 74.85 74.99 74.39 74.88
72.36 73.78 74.39 74.72 75.19 75.47 76.01 75.67 75.05 75.06 74.69 74.93 75.10 75.03 74.82 73.14 72.75 73.42 71.58 72.12 73.07 74.02 73.56 73.89 73.22 72.84 72.79 72.32 72.43 72.32 72.15 72.62 72.32 72.13 73.16 74.44 75.52 75.30 75.62 75.67 74.17 74.30 74.68
71.85 73.34 74.21 74.48 74.80 74.98 74.66 75.05 74.21 74.58 74.56 74.07 74.19 74.42 73.79 71.88 71.69 71.46 71.62 72.45 72.56 72.73 72.13 71.98 71.94 72.22 72.15 72.19 71.82 71.77 72.13 72.30 72.33 72.18 71.95 74.59 75.68 75.66 75.93 75.33 75.89 74.55 73.98
71.25 72.58 73.37 74.21 74.36 74.89 74.13 74.52 74.24 73.76 74.41 74.37 74.10 74.03 73.70 71.79 70.34 70.92 72.13 72.44 72.28 72.34 71.97 71.82 71.94 71.43 71.00 71.23 71.37 71.38 71.02 71.62 71.86 71.79 71.40 73.16 75.93 75.97 75.68 75.76 75.53 75.71 74.63
71.79 72.30 73.37 74.01 74.51 74.58 73.80 74.02 74.00 73.84 74.08 74.01 73.70 74.05 74.04 72.09 71.40 71.24 71.55 71.47 71.31 71.90 71.39 72.08 71.37 70.59 69.75 69.81 69.79 70.25 70.46 70.54 71.11 71.07 71.35 72.40 73.82 75.99 76.45 76.23 75.83 75.76 75.82
72.00 72.58 73.01 73.73 74.81 73.87 73.73 72.80 72.87 73.84 73.85 73.29 73.41 73.68 72.81 72.59 71.59 71.51 71.18 71.13 71.34 70.69 70.83 70.59 70.11 69.02 68.76 68.97 68.89 69.21 69.19 69.56 70.12 70.22 71.21 72.19 72.79 73.58 74.95 76.53 76.67 76.15 75.65
71.87 71.75 72.79 74.54 74.45 73.56 73.48 72.77 72.85 73.07 72.91 72.82 73.23 73.03 72.99 73.71 73.04 71.91 70.75 70.23 70.89 70.94 70.13 69.89 68.81 68.21 68.33 67.95 67.91 68.22 68.44 68.91 69.19 69.64 70.33 71.04 72.03 72.20 73.81 74.48 76.17 75.86 75.72
71.44 71.82 72.14 73.74 73.98 73.65 72.39 72.78 73.33 73.35 72.67 72.72 73.08 72.70 72.53 73.11 73.12 72.16 70.32 70.43 71.00 70.61 70.05 69.14 68.41 68.04 67.77 67.62 67.66 68.68 68.71 68.70 69.18 69.40 69.38 69.96 70.30 71.49 71.73 72.89 74.79 75.41 75.42
71.16 72.00 72.57 73.51 73.58 72.88 73.40 72.80 72.39 72.75 72.69 72.81 72.93 72.13 72.48 72.61 72.74 71.85 71.11 70.95 71.10 70.19 69.30 68.63 68.34 68.27 67.71 67.39 67.62 67.56 67.61 67.49 68.26 68.38 68.53 69.65 70.18 70.77 71.23 72.30 74.24 73.71 74.35
69.91 71.10 71.79 72.28 73.00 73.01 72.15 71.66 71.66 71.36 71.99 71.99 72.12 72.61 72.32 72.01 72.52 71.86 71.38 70.62 70.41 69.82 69.51 69.07 68.38 67.71 67.53 67.48 66.76 66.18 65.79 65.69 66.45 66.10 67.79 68.57 67.42 68.40 70.70 72.39 73.07 73.71 73.34
68.50 70.47 71.12 72.04 72.43 73.06 72.06 71.88 72.09 71.69 71.60 72.02 72.22 72.41 72.61 72.33 72.28 71.37 71.06 70.37 70.46 69.57 68.41 67.70 67.68 66.86 66.86 67.93 65.57 62.93 61.58 62.95 64.56 65.86 66.62 66.69 65.70 66.41 67.09 69.08 70.42 70.68 71.64
67.75 69.22 70.46 71.04 72.10 72.78 72.47 71.61 71.66 71.81 71.45 70.93 71.47 72.12 72.56 72.05 72.18 71.70 71.03 70.64 69.31 68.01 67.50 67.32 66.87 66.52 65.76 66.81 66.70 64.56 60.41 59.11 62.13 64.29 65.22 65.19 65.12 65.67 66.53 67.47 67.90 68.58 69.89
68.00 69.33 70.21 70.68 71.11 71.77 72.23 71.44 71.03 70.10 69.40 69.62 69.46 71.22 71.30 71.40 70.92 70.02 69.19 68.46 67.46 67.50 67.08 67.26 68.10 67.59 66.43 64.95 65.73 66.49 65.58 64.48 60.90 59.57 62.35 62.96 63.40 63.71 65.17 66.22 66.54 67.44 68.50
68.59 68.86 69.74 69.89 70.07 71.55 72.02 72.07 71.00 69.49 69.37 65.61 66.63 68.74 68.63 67.66 67.06 67.86 67.48 67.16 67.70 66.96 66.76 67.14 67.19 66.92 66.54 65.71 64.83 64.53 63.91 63.01 62.94 60.33 57.93 59.73 60.97 63.49 64.44 64.77 65.24 66.23 66.62
68.61 69.24 69.74 69.67 70.15 71.47 71.65 71.57 70.91 69.73 66.10 64.55 65.08 66.63 65.30 64.39 64.56 65.99 66.80 67.79 67.34 66.30 66.23 66.48 66.49 66.36 66.23 66.18 65.71 64.67 63.04 61.40 61.15 61.02 59.63 59.17 59.21 60.76 63.05 64.10 64.43 64.13 64.48

GFSSE_sfc_wetblb_009.txt.gz
Wetbulb
71.64 73.94 75.78 75.91 75.97 76.03 75.83 75.90 75.79 76.62 76.75 77.65 77.82 78.20 77.86 77.89 77.76 77.69 77.99 77.48 77.64 77.43 77.04 76.65 77.01 76.78 76.64 76.46 76.14 75.94 75.49 75.18 74.99 74.97 75.07 74.84 74.62 74.39 74.17 73.58 73.48 73.34 74.39
74.25 74.88 76.04 76.84 76.28 76.26 76.21 75.84 76.44 76.44 77.39 77.67 77.99 78.27 77.64 77.28 77.44 77.53 77.49 77.44 77.60 77.14 76.56 76.79 76.77 76.31 75.69 75.44 75.27 75.29 74.94 74.93 74.64 75.46 75.46 74.66 74.25 74.02 74.10 73.74 72.24 72.76 73.55
74.03 75.11 75.88 76.99 76.57 76.38 76.34 76.07 76.74 76.71 77.27 77.85 78.39 78.01 77.29 76.70 76.91 77.07 77.37 77.47 77.13 76.81 76.73 76.67 76.34 76.23 75.96 75.77 75.49 74.83 74.50 73.58 74.11 74.78 75.12 74.34 74.55 74.27 73.97 73.99 73.84 73.01 74.07
74.79 75.18 75.35 76.55 76.97 76.39 76.74 76.79 76.52 77.36 77.25 78.07 78.46 77.74 77.42 77.21 77.11 76.95 77.09 76.78 76.64 76.81 76.73 76.32 75.99 75.77 75.74 75.52 75.62 75.33 74.88 74.14 73.99 74.03 74.68 74.18 73.31 74.45 73.42 73.95 74.02 74.31 74.32
75.19 75.84 76.30 76.49 76.75 76.67 76.70 76.87 77.02 77.82 77.41 77.45 77.51 77.66 77.56 77.44 77.42 77.18 76.76 76.40 76.62 76.51 76.21 75.72 75.64 75.55 75.38 75.49 75.54 75.45 74.98 74.45 73.97 74.12 75.21 75.57 75.12 74.12 73.66 73.31 73.22 73.66 73.18
75.21 75.82 76.80 77.38 77.58 77.29 77.00 77.16 77.44 78.21 77.65 78.29 77.78 77.70 77.59 77.47 76.74 76.52 76.22 76.19 76.18 75.91 75.61 75.33 75.38 75.49 75.71 75.55 75.59 75.59 75.40 74.60 74.02 74.82 75.84 75.41 75.11 74.00 73.42 71.85 73.31 72.65 73.66
75.12 76.36 77.00 77.56 77.64 77.45 77.62 77.76 78.47 78.30 77.74 78.26 77.80 77.55 77.50 77.13 76.77 76.44 76.46 76.27 75.94 75.55 75.25 75.36 75.64 75.72 75.91 75.96 76.29 75.84 75.71 74.80 75.25 75.31 75.59 75.67 75.91 73.63 73.91 72.66 73.23 72.87 73.16
75.22 76.19 76.88 77.46 77.65 77.93 77.96 78.02 78.45 78.41 77.72 78.09 77.70 77.65 77.37 77.02 76.71 76.46 75.99 75.61 75.30 75.27 75.52 75.91 76.16 76.29 76.20 76.19 76.43 75.63 75.12 75.40 75.12 74.73 75.58 75.61 74.70 74.08 74.61 73.99 73.69 74.01 73.91
75.66 76.01 77.09 77.64 78.06 78.13 78.99 77.93 78.17 78.17 77.98 77.75 77.78 77.60 77.39 77.37 76.96 76.43 75.94 75.77 75.72 75.57 75.94 76.53 76.05 75.85 75.98 75.88 75.52 75.13 75.42 75.27 75.92 75.56 74.90 76.14 74.39 74.75 74.49 74.70 73.53 73.70 74.05
75.75 76.33 76.96 77.47 77.84 78.18 77.71 77.99 77.77 77.89 77.81 77.63 77.34 77.29 77.40 77.26 76.99 76.72 76.98 76.04 76.27 76.38 76.55 76.63 75.94 75.55 75.77 75.37 75.52 74.83 75.05 74.80 75.53 76.35 75.89 76.17 73.32 74.87 74.91 74.97 74.04 73.80 73.60
75.08 76.46 76.92 76.77 77.73 78.35 77.81 77.58 77.35 77.38 77.28 77.26 77.16 76.94 77.06 77.66 77.22 76.33 74.92 75.64 75.85 75.69 75.77 76.18 75.47 75.75 75.55 74.67 74.77 74.88 74.23 75.59 75.54 76.21 76.69 74.89 74.36 74.79 75.10 74.71 74.24 74.92 73.52
73.25 75.07 76.61 77.28 77.22 77.47 76.10 77.84 78.03 76.92 76.64 76.80 77.38 77.56 77.15 77.37 77.99 76.22 74.53 75.02 74.69 74.58 75.49 75.75 75.55 75.19 74.82 75.49 75.50 74.45 75.26 75.48 75.44 75.38 75.99 74.24 74.78 74.90 75.09 75.33 74.70 74.62 74.62
73.47 74.62 76.06 76.86 77.62 77.42 77.79 77.52 78.34 77.37 77.40 76.95 77.56 77.38 78.00 77.33 77.33 76.79 76.48 75.82 75.73 75.44 76.89 76.17 76.10 75.85 75.43 75.18 74.54 74.34 74.71 74.93 75.61 75.58 75.59 73.23 74.82 75.09 75.11 75.21 75.34 75.03 74.28
72.90 74.24 75.36 76.72 77.25 77.56 77.74 76.58 77.15 76.03 76.59 75.98 76.54 77.88 77.93 77.52 75.96 76.14 75.89 76.46 77.33 76.85 76.40 76.00 75.75 75.77 75.05 74.44 73.88 73.76 73.96 73.96 74.20 74.84 75.85 73.73 74.69 75.37 75.27 75.18 75.47 75.52 74.50
72.50 74.34 75.53 76.41 77.05 77.45 77.25 76.46 76.34 76.86 75.81 76.22 76.81 76.94 76.50 77.24 75.93 76.02 75.72 76.27 76.94 76.66 76.43 76.18 76.19 75.22 74.53 73.66 73.65 73.29 72.85 73.24 73.78 73.67 74.55 74.14 73.81 75.08 75.44 75.67 75.29 75.28 75.09
72.98 73.94 75.70 76.43 77.30 77.55 77.00 77.54 77.13 76.97 77.68 76.78 76.93 76.64 77.18 76.44 78.26 76.80 75.52 76.19 76.13 76.51 76.14 76.05 75.33 74.39 73.42 73.52 72.73 72.89 72.36 72.26 72.84 72.92 72.88 74.81 73.09 74.21 75.26 75.85 75.89 75.35 75.34
73.58 73.94 74.34 75.50 76.96 77.16 77.51 78.20 77.43 77.24 76.87 76.13 76.37 77.39 77.35 77.35 77.02 77.27 76.95 76.38 76.38 76.14 75.49 75.08 74.63 74.78 73.36 73.09 71.97 71.93 71.90 72.26 71.56 72.66 72.76 73.11 74.69 73.77 73.90 74.57 76.51 76.50 76.01
74.30 74.06 74.43 74.59 75.41 76.50 76.86 77.37 76.74 77.02 76.84 76.83 78.70 78.81 77.37 77.67 77.84 77.76 77.64 76.84 76.15 75.73 75.05 74.64 74.06 73.25 73.25 72.26 71.31 71.32 71.84 71.72 72.29 72.34 72.45 72.61 72.49 73.07 74.68 73.86 74.28 76.32 75.88
74.93 75.19 75.05 76.00 76.16 77.02 77.58 77.58 78.02 77.74 77.39 78.12 77.11 77.08 77.39 77.02 77.27 77.67 77.37 76.55 75.58 74.93 75.54 74.88 73.95 73.10 71.00 70.58 70.28 70.80 71.41 70.96 71.80 71.46 72.00 72.88 73.39 73.31 72.90 75.27 73.37 73.94 74.88
75.19 75.69 76.05 75.88 77.00 77.85 78.27 77.89 78.31 77.59 77.66 78.07 76.61 76.64 77.04 76.94 76.49 76.55 76.11 75.55 75.28 75.09 74.69 74.16 73.58 73.38 71.52 71.12 70.24 69.93 70.78 72.05 71.14 71.68 71.70 71.75 70.97 73.43 74.15 74.47 75.32 75.79 73.52
74.81 75.00 75.53 75.68 76.70 77.12 76.10 75.78 75.87 74.97 76.34 76.19 77.65 77.14 76.74 76.38 76.44 76.51 76.20 75.62 75.16 73.93 74.13 73.82 73.22 71.43 71.14 72.37 69.88 68.43 70.46 70.90 69.90 70.44 71.12 69.67 68.28 69.91 71.49 72.48 73.90 74.45 75.41
74.01 74.42 75.29 75.97 76.73 77.23 76.38 76.71 76.58 76.32 76.41 76.40 76.92 76.96 76.89 76.27 76.57 76.03 75.62 74.45 74.27 73.01 73.16 72.47 72.30 70.63 70.93 72.38 68.52 67.96 64.27 66.93 70.13 69.70 69.36 66.86 66.94 68.11 68.52 70.51 70.98 71.59 72.48
72.95 73.81 74.81 76.26 77.02 77.23 77.55 76.91 76.34 76.59 76.58 75.74 75.77 75.71 76.17 76.35 76.25 76.00 75.09 74.33 73.96 72.75 70.49 72.46 71.76 70.81 69.13 71.07 70.37 67.73 63.74 62.83 65.10 69.47 69.05 66.89 66.16 66.08 67.19 68.45 69.37 70.00 69.25
72.57 73.74 74.88 75.84 76.82 77.00 77.58 76.27 76.04 74.50 73.81 74.78 74.97 75.47 75.82 76.42 75.66 75.40 75.02 73.43 73.13 71.72 72.28 72.26 72.12 72.08 71.36 68.37 70.03 70.33 69.70 68.28 63.57 62.69 66.23 66.09 65.42 64.41 65.87 65.85 66.20 66.78 66.33
72.84 72.90 73.87 75.69 76.60 76.95 77.16 77.31 75.75 75.38 75.28 75.25 74.24 74.85 76.32 75.91 75.63 74.30 73.28 72.51 72.11 71.75 72.54 71.63 71.93 71.35 71.12 69.65 68.91 68.64 68.63 68.01 67.69 63.46 59.43 61.69 64.57 65.63 65.09 65.10 65.96 65.56 65.64
72.45 72.67 73.40 74.98 75.98 76.12 76.23 76.58 76.20 75.73 75.57 73.79 72.74 71.98 73.12 73.99 73.27 72.64 71.74 72.01 72.73 72.32 71.69 70.68 71.23 70.54 70.67 70.47 69.89 68.68 66.45 64.28 63.89 63.33 61.50 62.25 61.74 63.83 64.39 65.04 65.02 65.49 65.23

GFSSE_sfc_wetblb_012.txt.gz
Wetbulb
72.36 75.62 75.63 76.05 76.23 76.24 76.05 75.80 75.76 76.22 77.77 78.22 78.30 78.37 78.10 77.63 78.15 77.98 77.67 77.69 77.46 77.20 77.12 77.04 76.77 76.26 76.26 76.20 75.95 75.75 75.39 75.36 74.85 75.39 75.14 74.92 74.53 74.39 73.93 73.22 73.66 73.68 74.38
73.85 75.77 76.24 76.80 76.13 76.25 76.08 76.15 76.20 76.63 77.40 77.58 78.35 77.65 77.41 77.55 77.49 77.54 77.65 77.57 77.09 76.88 77.07 76.85 76.64 76.36 76.17 75.87 75.32 75.48 75.37 74.68 74.46 75.51 74.82 74.96 74.65 74.23 73.52 73.38 73.58 74.19 74.09
75.41 76.25 76.48 76.31 76.22 75.90 76.14 76.47 76.85 77.44 77.05 77.87 77.63 76.96 76.81 77.07 77.25 77.72 77.53 77.05 77.08 76.94 77.00 76.59 76.12 75.95 76.01 75.70 75.76 75.31 74.90 74.51 73.91 74.45 73.33 74.44 74.48 74.29 73.77 73.79 73.11 73.77 74.31
75.38 76.05 76.33 76.62 76.44 76.05 76.17 76.59 77.09 76.63 76.66 77.32 77.06 76.64 76.66 76.91 77.05 77.19 76.92 76.70 76.83 76.87 76.40 76.15 76.07 75.90 75.68 75.79 75.56 75.37 75.20 74.71 73.80 73.52 75.29 73.38 73.63 74.31 73.30 74.27 74.27 74.56 74.59
75.78 76.03 76.71 76.59 76.72 76.80 76.57 76.76 77.25 76.99 77.23 77.36 76.90 76.64 76.78 76.84 77.19 76.87 76.59 76.62 76.53 76.26 76.01 75.71 75.68 75.65 75.95 76.01 75.84 75.64 75.40 74.51 73.71 74.74 75.74 74.82 74.25 74.18 73.19 73.86 74.35 74.18 73.24
76.13 76.08 75.95 76.51 76.84 76.89 76.81 77.08 77.30 77.34 77.41 77.31 76.88 76.98 77.25 77.22 76.79 76.46 76.54 76.57 76.18 75.84 75.71 75.51 75.62 75.73 75.96 75.84 76.19 75.94 75.37 74.60 74.68 75.20 76.57 74.74 74.79 74.10 72.66 73.55 73.44 74.00 74.26
76.03 76.13 76.47 77.30 77.37 77.33 77.37 77.45 77.71 77.23 77.34 77.42 77.34 77.47 77.58 76.98 76.65 76.43 76.54 76.21 75.76 75.34 75.37 75.48 75.93 76.09 76.20 76.11 76.19 75.34 75.17 75.40 75.77 76.64 75.69 76.35 75.75 74.31 73.22 73.55 72.45 72.78 73.97
76.12 76.93 77.77 77.67 77.73 77.63 77.71 77.83 78.14 77.42 77.61 77.60 77.46 77.28 77.09 76.84 76.59 76.46 76.04 75.53 75.33 75.21 75.30 76.23 76.15 76.15 75.98 76.03 75.92 74.82 74.74 75.64 75.58 76.09 76.19 77.04 74.78 73.98 74.75 73.77 73.85 73.46 73.93
76.86 77.25 77.72 78.05 78.64 78.10 77.89 78.32 78.02 77.61 77.57 77.25 77.25 77.14 77.01 76.76 76.51 76.09 75.87 75.57 75.61 75.61 76.37 76.59 75.70 75.46 75.43 75.15 74.93 74.85 74.62 74.43 76.57 76.28 75.70 77.02 74.72 74.56 75.00 74.64 74.22 74.48 74.13
76.50 77.11 76.75 77.79 78.01 78.23 78.26 78.15 78.06 77.66 77.03 76.87 77.23 76.98 76.98 76.87 76.54 76.37 76.37 75.79 75.62 75.93 75.87 76.29 75.20 75.18 75.23 75.26 75.34 75.31 75.10 75.82 75.95 76.74 76.22 76.20 74.27 75.18 74.65 75.15 73.79 73.79 74.07
75.54 75.67 77.52 77.41 78.20 78.45 77.31 77.36 77.46 77.36 77.47 76.98 77.15 77.10 77.03 77.11 78.13 76.62 75.90 75.12 75.62 75.37 75.39 75.62 75.04 75.52 75.02 74.92 74.53 74.86 75.61 76.72 75.79 75.65 76.40 75.05 73.93 74.46 75.25 75.30 74.53 74.65 73.70
74.88 75.71 76.70 77.53 77.62 77.28 76.52 78.01 78.07 77.26 76.63 76.52 76.59 77.10 76.25 78.01 78.35 76.69 76.14 74.54 74.65 74.89 75.20 75.26 75.01 75.43 76.15 76.68 76.33 75.99 75.50 75.95 76.47 76.87 75.99 74.78 74.42 75.37 75.33 75.77 74.75 75.24 74.58
74.95 75.75 76.36 76.81 77.80 77.21 77.05 77.17 76.88 76.70 76.69 76.89 77.97 77.24 77.01 77.61 78.26 77.96 78.17 77.46 77.18 75.24 77.23 76.91 76.86 76.95 76.23 76.07 75.90 75.41 75.27 75.20 75.54 76.34 76.11 73.89 73.78 75.02 75.48 75.45 75.55 75.39 74.49
74.61 75.28 76.14 76.89 77.17 77.36 77.45 76.84 77.04 76.35 76.51 75.99 76.18 77.78 77.50 76.07 77.22 77.15 77.21 78.09 77.38 78.27 77.02 77.49 77.13 76.79 76.22 76.04 75.27 74.97 74.72 74.48 74.25 74.37 76.80 74.59 73.49 74.92 75.48 75.73 75.94 75.56 75.11
74.01 75.13 75.91 77.17 77.74 78.06 77.89 76.76 76.66 76.39 75.89 75.94 76.21 77.11 76.65 76.32 77.02 76.29 77.27 77.36 76.63 77.63 77.56 76.32 76.83 76.45 76.03 75.16 75.25 74.57 73.43 73.84 74.00 73.64 73.95 75.01 73.31 73.92 75.58 75.70 75.35 75.73 75.32
74.10 75.02 76.36 76.79 77.87 77.96 77.54 77.78 76.75 76.78 76.47 76.63 76.21 76.48 77.69 76.64 78.19 76.45 76.40 75.99 76.28 76.95 77.44 76.90 76.42 75.69 75.39 75.28 74.51 73.70 72.69 72.10 72.27 73.03 72.80 74.08 73.88 73.40 74.43 75.75 75.70 76.00 75.68
74.49 75.32 76.24 77.03 77.64 78.04 78.06 78.04 77.69 77.03 76.78 76.31 76.15 77.94 78.33 78.81 77.53 76.98 76.86 75.61 75.94 77.75 77.25 76.88 76.42 75.86 74.54 74.69 73.37 72.91 71.91 71.69 71.32 72.07 72.38 72.17 73.85 74.72 74.37 74.37 75.63 76.63 76.75
75.06 75.00 76.01 76.36 77.07 77.78 77.94 77.97 77.41 77.00 77.11 79.46 77.16 77.60 77.50 78.14 77.90 77.49 75.94 75.93 76.15 76.34 76.46 75.46 75.56 74.25 73.49 72.14 70.67 70.53 70.78 71.61 72.22 72.00 72.08 72.88 72.59 71.41 75.17 75.06 74.17 75.12 75.88
75.56 76.01 75.80 76.21 76.08 77.11 78.20 78.20 78.03 78.71 78.90 77.75 78.16 77.90 77.78 77.98 77.77 77.10 76.22 76.85 76.93 76.69 75.84 75.68 74.29 73.76 70.52 69.76 68.91 69.26 71.93 71.96 72.54 71.62 73.02 74.20 74.13 73.78 72.43 75.10 73.28 73.31 74.51
76.06 76.71 76.67 76.30 77.14 78.03 80.30 79.25 78.38 77.28 77.03 77.13 79.41 79.64 78.43 77.90 77.38 76.86 76.52 76.28 76.15 76.11 75.34 74.70 73.39 72.66 70.93 69.84 68.62 69.71 71.84 73.47 73.21 73.56 72.74 72.42 72.39 74.17 74.53 75.30 74.86 75.11 73.51
76.13 76.54 77.10 77.16 77.95 78.83 75.91 75.19 75.50 75.05 75.92 76.45 77.14 77.96 78.20 77.88 77.73 77.61 76.26 76.08 76.22 74.98 74.64 74.33 71.95 70.37 68.53 71.79 69.13 69.36 70.35 71.41 72.44 72.87 72.64 70.04 69.98 71.35 73.12 74.51 74.52 74.92 75.07
75.55 76.52 77.25 77.58 78.25 78.46 76.84 78.91 77.06 76.73 76.18 76.81 77.44 77.80 78.06 77.87 77.96 77.22 76.89 76.10 76.05 74.51 74.09 72.48 71.51 69.25 69.87 71.96 68.01 67.51 65.22 67.66 69.42 71.20 70.92 68.31 67.99 69.26 70.12 71.67 72.82 73.93 74.27
74.79 76.20 77.04 78.00 78.47 78.75 78.84 78.17 77.94 77.80 77.99 76.16 76.37 76.57 77.56 78.09 78.02 77.67 77.21 75.99 75.34 73.01 69.91 71.84 71.66 70.37 68.16 71.30 70.76 67.21 64.03 63.75 65.66 68.86 69.55 67.40 67.60 67.14 68.09 68.86 70.14 69.94 70.03
74.62 76.15 77.31 78.08 78.62 78.91 79.49 79.17 78.33 75.40 73.57 73.93 74.76 75.13 75.71 77.02 77.01 76.63 76.54 75.58 73.39 71.43 72.11 71.95 72.00 71.42 70.80 68.76 69.58 70.51 70.20 68.82 63.72 63.96 66.55 66.72 67.26 66.14 66.44 67.07 67.18 67.52 67.57
74.82 75.47 76.80 78.05 78.49 79.12 79.27 79.68 77.35 77.12 75.12 74.95 74.72 75.27 76.15 76.67 76.21 75.18 76.02 73.78 72.67 71.34 72.70 73.17 71.94 71.49 70.83 68.55 68.73 69.36 69.36 68.72 68.88 63.66 61.49 65.19 66.49 66.77 67.71 67.75 67.58 67.54 66.88
74.56 75.11 75.81 77.52 78.91 78.91 78.80 78.89 78.55 77.49 76.37 74.33 74.99 73.67 73.04 73.68 74.79 75.58 75.61 73.54 73.19 72.29 72.50 72.29 71.85 71.22 70.92 70.54 69.55 69.84 67.21 65.55 65.51 64.02 62.33 64.03 64.14 66.41 66.98 67.92 67.32 67.66 67.91

GFSSE_sfc_wetblb_015.txt.gz
Wetbulb
72.10 74.83 75.96 76.02 76.05 75.96 75.77 76.10 77.23 78.10 78.53 78.72 78.75 78.76 78.59 78.31 78.76 78.50 78.37 77.50 77.24 77.32 77.00 76.93 76.63 76.29 76.07 76.10 76.10 76.04 75.52 75.13 75.68 74.99 74.99 75.10 74.79 74.67 72.87 73.11 73.28 73.55 74.94
74.52 75.56 76.39 76.40 76.27 76.09 76.26 76.24 76.47 77.36 78.23 78.53 78.50 78.47 78.29 78.03 77.75 78.01 77.75 77.22 77.20 77.12 76.93 76.82 76.63 76.35 76.27 76.16 75.77 75.60 75.24 75.05 74.83 74.63 74.66 75.05 75.19 74.11 73.36 73.75 73.48 74.10 74.11
74.91 75.82 75.95 76.42 76.41 76.55 76.65 77.12 77.16 77.00 77.54 77.54 77.77 77.92 77.34 77.64 77.87 77.58 77.23 77.26 77.21 77.07 76.60 76.44 76.27 76.13 76.22 75.99 75.74 75.57 75.19 74.30 73.60 74.52 74.61 74.56 74.09 74.08 74.14 74.14 74.27 74.57 74.74
74.85 75.69 75.77 76.78 76.70 76.70 76.38 76.56 77.22 76.62 76.76 76.84 77.33 77.01 76.87 77.21 77.46 77.10 76.77 76.96 76.91 76.72 76.49 76.13 75.96 76.05 76.13 75.94 75.82 75.54 75.08 74.36 73.28 74.43 75.76 74.01 73.61 74.03 74.65 74.38 74.80 74.91 74.79
74.21 75.28 76.40 76.74 76.47 76.50 76.92 76.82 77.39 77.00 76.85 76.70 76.70 76.82 76.80 77.10 77.16 76.69 76.55 76.55 76.52 76.24 75.88 75.93 76.10 76.10 76.22 76.10 75.99 75.66 75.02 74.38 73.73 74.76 75.53 74.19 73.82 73.64 73.86 73.92 74.32 74.46 73.64
74.08 75.31 76.60 76.93 76.67 76.90 76.97 77.49 77.30 77.27 77.24 76.60 76.55 76.69 77.21 77.19 76.71 76.52 76.58 76.30 76.13 75.96 76.02 76.10 76.27 76.24 76.27 76.13 76.04 75.30 74.80 74.41 74.35 74.49 75.92 73.64 73.71 73.80 73.75 74.00 74.33 74.84 74.43
75.77 76.22 76.04 77.40 77.09 77.12 77.13 77.60 77.66 77.51 77.19 76.79 76.66 77.13 77.02 76.86 76.43 76.66 76.18 75.75 75.59 75.68 76.07 76.49 76.41 76.49 76.10 75.88 75.60 74.88 74.63 75.35 76.11 75.69 75.33 75.64 74.14 74.54 73.81 73.78 73.39 74.49 74.32
75.94 75.80 76.37 77.28 77.33 77.37 77.48 77.65 77.25 77.17 77.09 77.12 77.10 77.07 76.74 76.60 76.35 76.15 75.43 75.41 75.43 75.41 75.86 76.54 75.84 75.77 75.80 75.44 75.02 74.63 74.99 75.38 75.89 75.89 75.08 75.84 74.70 75.12 74.25 74.38 73.39 73.20 74.66
76.28 75.76 77.25 77.42 77.98 77.89 77.83 77.52 77.39 77.53 77.45 77.12 77.07 77.02 76.63 76.63 76.13 75.82 75.56 75.12 75.43 75.80 76.57 76.23 75.59 75.40 75.38 74.80 74.68 74.49 75.52 75.71 76.47 76.80 75.49 75.13 75.74 75.05 75.43 74.36 74.86 74.43 74.27
75.36 76.44 76.93 77.40 77.45 77.67 77.87 77.70 77.40 77.36 76.93 76.55 77.00 76.69 76.63 76.97 76.96 76.29 76.19 75.66 75.31 75.36 75.27 75.68 75.03 75.07 74.91 75.08 74.83 74.91 75.60 76.33 76.40 75.43 76.08 75.56 75.59 75.18 75.52 74.77 74.62 74.83 74.49
74.62 75.97 75.85 76.34 76.73 78.36 78.02 78.40 77.77 77.27 76.66 76.47 76.84 77.08 76.95 76.32 76.33 77.57 76.85 75.53 74.92 75.19 74.86 75.31 74.92 75.88 75.55 75.77 75.57 75.95 76.35 74.79 75.23 75.06 75.62 75.06 75.40 75.48 75.41 75.42 74.27 74.18 74.60
73.74 74.74 76.09 75.80 76.63 76.75 75.74 77.44 77.07 76.24 76.07 76.28 76.37 77.33 76.10 77.97 78.08 76.67 76.56 75.73 75.19 75.56 75.78 76.01 76.27 76.49 76.69 75.70 75.84 76.81 75.55 74.99 75.50 75.73 75.34 76.16 75.60 75.38 75.65 76.02 75.15 75.19 74.09
74.54 75.63 76.23 76.01 76.98 76.57 77.82 76.34 76.65 76.66 76.53 76.44 77.59 77.39 76.93 77.24 76.51 77.06 75.16 76.33 77.21 76.27 75.46 76.33 75.49 76.41 75.96 75.53 75.15 74.87 74.62 74.80 73.58 74.61 75.32 75.83 74.76 74.66 75.60 76.04 76.01 75.14 75.45
74.73 75.15 75.64 77.01 77.25 76.97 76.27 76.25 76.22 75.68 75.78 75.63 76.69 77.98 77.62 76.49 76.88 77.32 76.26 76.02 77.44 76.29 76.08 76.74 76.25 77.32 75.77 75.83 75.13 74.90 74.45 73.76 72.91 73.30 75.91 75.99 74.43 74.59 75.83 75.87 76.23 75.59 75.44
73.90 74.87 75.42 76.60 77.70 77.90 78.26 76.37 76.40 76.00 75.54 75.76 76.13 77.62 77.01 76.04 77.96 76.73 76.79 76.52 77.06 76.90 75.04 76.42 76.10 76.09 76.40 75.43 74.55 74.55 73.76 73.11 72.87 72.26 73.57 76.04 74.97 74.26 75.96 75.96 76.05 75.62 75.88
74.43 74.96 75.85 76.66 77.79 78.13 78.41 79.02 77.22 77.79 76.84 75.94 77.80 76.70 77.82 76.91 78.42 78.45 77.71 75.77 75.84 77.26 76.52 76.13 76.53 75.39 75.58 75.44 73.50 74.03 72.25 71.97 71.75 71.52 71.37 75.33 75.75 74.85 75.61 76.07 76.12 75.98 75.87
74.76 75.70 75.96 76.54 77.46 77.82 78.06 78.09 77.33 76.54 76.23 76.18 75.99 77.95 78.48 78.28 77.84 78.32 76.60 76.05 76.85 77.84 77.60 76.82 75.91 76.09 75.11 74.73 72.50 71.67 70.89 71.33 70.94 71.85 71.72 71.32 74.56 76.02 76.02 76.20 76.37 76.44 76.19
74.93 75.26 76.30 76.25 76.61 77.52 78.43 78.25 77.33 76.60 76.50 76.48 76.49 76.76 78.19 78.72 78.62 78.24 76.27 75.96 77.30 77.11 76.52 76.99 75.21 74.23 73.28 71.30 70.15 69.96 70.24 71.14 72.28 72.24 71.69 71.93 71.26 71.91 75.77 76.32 75.52 75.94 75.85
75.12 75.69 76.07 76.89 76.68 77.45 79.37 78.43 78.33 79.50 78.32 77.53 78.16 76.44 77.64 78.41 78.60 77.72 76.55 76.97 77.55 76.05 77.05 75.48 74.77 73.61 70.72 69.86 68.81 68.52 70.64 71.63 71.79 71.54 71.71 72.07 73.12 72.70 72.16 75.90 75.90 74.92 75.26
75.29 76.15 76.42 76.56 78.09 79.06 80.92 79.44 78.76 76.89 77.56 77.45 76.86 78.25 78.66 78.05 78.13 78.16 76.53 76.82 76.71 77.24 75.88 75.73 73.60 72.49 70.95 70.14 68.56 68.55 70.89 71.93 71.93 71.95 71.44 71.48 71.79 73.05 73.51 73.88 74.86 74.25 74.63
75.20 75.96 76.70 77.55 80.01 78.09 76.28 76.82 75.37 75.23 75.87 76.26 76.41 78.39 78.76 78.04 78.40 77.80 76.80 76.44 76.68 75.50 75.03 74.07 72.25 71.18 68.98 71.49 68.73 69.71 69.84 70.79 71.18 71.16 71.24 69.67 69.91 71.02 72.48 73.17 74.48 74.94 74.88
74.67 76.41 78.22 78.64 80.28 79.40 77.30 77.85 76.78 76.35 75.90 75.96 76.10 78.57 78.15 78.16 78.68 77.19 78.06 76.58 77.24 74.71 74.80 73.18 71.80 69.04 68.78 71.35 67.96 66.88 65.12 68.65 70.50 69.68 70.19 68.57 68.56 69.27 70.42 71.93 73.07 74.01 74.46
74.71 76.21 78.44 79.92 80.53 80.16 80.11 78.93 78.48 79.77 77.47 75.91 75.41 76.56 77.36 77.74 77.74 77.91 77.41 77.10 76.63 74.64 70.75 72.44 71.73 70.61 67.97 70.08 70.74 67.48 64.36 63.68 66.20 69.13 69.47 67.92 68.10 67.68 68.63 69.74 70.05 69.82 71.18
74.79 76.31 79.01 80.07 80.71 80.33 80.84 78.61 79.20 75.56 73.45 73.43 74.73 75.02 76.40 76.97 76.59 77.62 77.26 75.84 75.42 72.73 74.95 72.48 71.39 71.37 70.64 68.31 68.94 69.27 70.06 68.72 64.54 64.02 67.38 67.22 67.06 66.83 66.96 67.28 67.58 67.86 68.18
74.69 75.32 77.52 80.35 80.83 81.12 81.20 79.71 77.30 77.12 74.58 74.74 74.21 77.63 78.27 78.09 76.24 75.26 75.70 75.74 74.09 70.98 73.46 73.09 71.73 71.88 71.14 68.85 68.00 68.29 69.09 67.51 67.60 64.02 61.78 64.53 66.71 66.58 67.20 66.64 66.41 66.46 67.64
74.40 75.23 77.03 79.84 80.87 81.12 81.27 80.50 80.39 79.93 77.40 75.00 75.69 74.38 73.29 73.69 74.49 75.46 75.22 75.08 73.85 73.37 73.19 72.28 72.30 71.66 71.41 71.16 69.86 69.10 66.17 65.02 65.10 64.34 62.66 64.61 64.23 65.95 66.64 67.21 67.00 66.80 67.09

GFSSE_sfc_wetblb_021.txt.gz
Wetbulb
70.90 73.25 75.33 75.63 75.74 76.54 77.16 78.58 79.01 78.99 78.94 79.04 79.19 79.24 78.92 78.74 78.28 78.67 78.64 78.21 77.85 77.85 77.10 76.64 76.34 76.12 76.21 76.06 75.68 75.45 76.04 75.48 75.36 75.04 75.02 74.44 73.53 74.02 74.30 74.14 75.40 73.80 74.32
71.99 73.41 76.09 76.42 76.53 77.33 78.38 78.39 78.76 78.73 79.01 79.14 79.03 78.87 78.73 78.15 77.65 78.24 78.29 77.60 77.41 77.72 76.71 76.51 76.29 76.07 76.01 75.74 75.40 75.16 75.37 75.50 75.21 75.05 74.94 73.78 74.05 74.36 74.80 75.58 75.03 73.47 73.94
72.25 73.89 74.51 76.61 77.02 77.19 77.64 78.24 78.44 78.40 78.74 78.98 79.02 78.86 78.59 77.81 77.86 77.94 77.39 77.19 77.48 77.03 76.32 76.38 76.32 76.10 75.96 75.65 75.30 74.69 74.94 74.63 74.33 73.86 74.13 72.11 72.51 74.44 74.80 74.96 75.44 74.71 74.49
72.99 73.14 74.32 76.66 77.28 77.31 77.87 78.51 78.27 78.09 77.80 78.63 78.71 78.88 78.49 77.89 78.06 77.63 76.98 76.87 76.68 76.57 76.13 76.08 75.94 76.13 75.96 75.76 75.57 75.24 74.83 74.14 73.83 74.55 73.65 72.86 72.64 74.11 75.12 75.60 75.16 74.66 74.17
72.50 73.22 74.42 77.30 77.72 77.56 77.69 78.39 78.29 78.06 77.65 77.98 78.30 78.86 78.49 78.07 77.28 76.90 76.65 76.43 76.24 76.41 76.30 76.16 76.02 75.94 76.07 75.96 75.51 75.07 75.02 74.75 75.24 74.69 72.79 69.17 70.10 74.17 75.44 75.19 75.09 75.20 75.23
72.84 74.43 76.98 77.68 77.07 77.90 77.76 78.09 77.45 77.81 77.84 78.16 78.41 78.77 78.33 77.91 77.07 76.72 76.27 75.99 75.99 76.08 76.49 76.27 76.22 75.80 75.71 75.66 75.41 74.94 75.16 75.47 75.27 73.88 71.14 72.12 70.95 75.06 74.66 75.34 75.21 75.34 74.87
72.82 74.46 75.83 78.17 78.29 78.21 77.88 77.67 78.16 77.38 77.30 78.16 78.57 78.49 78.28 77.92 77.08 76.44 75.93 75.68 75.68 75.82 76.22 76.10 75.63 75.49 75.11 75.24 75.19 74.61 74.63 75.24 74.10 72.94 73.12 71.11 72.37 75.78 75.64 75.46 74.94 74.98 75.23
72.82 74.10 75.17 77.61 78.15 78.55 77.85 77.74 77.85 77.41 77.42 78.18 78.50 78.39 78.32 78.10 77.75 77.02 75.96 75.62 75.30 75.50 76.10 75.88 75.24 75.38 74.94 74.77 75.08 75.33 75.13 74.80 73.83 73.03 72.81 72.58 74.34 75.23 74.58 74.86 74.82 75.04 75.03
73.00 73.29 74.39 75.33 76.40 78.20 78.84 78.00 77.65 77.68 77.88 78.14 78.31 78.06 77.88 77.68 76.74 76.58 77.02 75.78 75.33 75.58 75.41 75.51 75.09 75.52 75.99 75.63 76.24 76.46 75.54 74.21 69.57 71.09 72.80 71.23 75.49 74.76 73.47 74.23 74.94 74.64 74.89
72.67 73.57 73.74 74.60 74.85 75.37 75.77 77.62 77.55 77.81 77.51 77.49 77.69 77.18 77.07 76.49 76.46 76.18 77.34 77.38 75.50 75.07 75.30 75.45 76.10 77.02 77.12 77.28 76.96 75.20 75.88 73.62 68.57 69.17 71.60 70.84 74.47 75.34 75.09 74.32 74.49 74.41 74.48
72.77 72.89 73.78 74.06 74.20 74.14 74.23 75.67 77.43 77.44 77.30 77.36 76.99 77.53 77.15 74.33 74.29 75.42 76.34 76.64 75.64 76.06 75.98 76.10 77.40 77.64 77.55 77.92 76.56 76.21 75.62 69.66 69.23 67.44 71.50 74.23 75.45 75.69 75.02 75.48 75.09 74.91 74.60
71.06 72.54 73.50 73.69 74.07 74.20 75.16 74.20 74.43 74.94 73.88 73.14 73.80 73.68 74.37 73.47 72.68 75.77 76.35 77.61 76.03 76.24 77.11 77.07 77.57 77.65 76.93 73.84 73.69 75.65 73.98 69.61 69.97 69.74 69.54 72.98 76.18 76.48 75.70 74.78 74.81 74.98 75.12
70.87 72.94 73.24 73.75 74.37 73.84 73.77 73.98 74.28 73.66 72.49 72.19 72.45 73.61 73.55 74.30 73.07 72.51 73.42 72.69 73.03 75.66 73.04 74.38 75.07 74.15 72.52 73.20 72.69 70.50 70.60 68.64 70.70 70.62 70.66 74.20 76.29 76.29 76.35 75.25 75.09 74.59 75.13
70.38 71.62 72.90 73.66 73.89 73.31 74.35 73.77 73.68 72.99 72.47 72.22 73.32 74.34 73.28 73.42 71.33 73.03 73.24 71.61 73.23 73.28 72.64 73.50 72.90 72.50 73.11 71.81 71.45 70.48 70.50 71.67 73.18 72.22 71.95 75.12 76.01 76.92 76.69 76.33 75.55 75.58 74.79
70.63 71.63 72.78 73.47 72.91 73.44 72.86 71.79 72.60 72.92 73.69 73.22 74.16 74.14 72.91 72.91 72.37 71.53 73.53 73.13 72.79 73.13 73.71 72.49 73.93 72.42 71.94 72.23 71.90 70.45 69.46 67.11 68.61 72.58 72.35 76.52 76.21 76.81 76.49 76.68 75.74 75.74 75.86
71.42 71.94 73.26 73.37 73.26 73.76 72.58 73.34 74.16 72.71 73.66 73.61 73.89 74.45 74.07 72.83 71.97 73.58 72.74 72.84 73.72 73.55 74.37 73.17 72.19 71.85 71.61 72.52 72.63 72.73 70.98 67.34 67.64 67.81 72.49 73.23 76.18 75.75 76.60 76.45 76.71 75.86 76.09
71.37 72.41 73.05 72.83 74.96 74.07 72.91 74.44 74.10 74.61 71.79 71.00 73.89 74.48 74.32 74.09 73.17 73.33 73.13 71.97 73.71 73.94 74.03 73.21 72.35 72.29 72.63 73.01 71.61 71.31 68.32 66.75 68.14 67.54 68.32 71.79 73.11 75.41 75.92 77.04 76.97 76.37 76.33
71.41 72.59 73.42 75.11 74.41 74.61 73.71 74.65 73.52 72.61 73.72 72.84 72.01 74.39 74.85 74.87 74.70 73.06 73.69 73.01 73.07 73.39 72.51 71.32 70.95 70.63 71.28 69.22 65.42 64.63 65.31 66.06 67.71 68.64 67.81 69.07 71.82 72.54 75.05 76.26 76.11 76.34 75.88
72.04 72.94 73.17 73.61 73.08 73.08 74.31 75.38 73.69 73.18 73.91 72.66 74.19 73.91 74.63 75.19 75.08 73.21 73.46 73.43 73.33 72.75 71.75 71.58 69.83 69.34 66.04 64.66 64.79 63.94 65.18 67.66 67.24 69.08 68.00 67.58 67.90 70.72 71.95 75.15 75.35 75.47 75.17
72.66 73.17 72.87 73.14 73.25 72.90 75.04 74.33 74.32 73.36 74.00 74.86 73.57 72.27 73.42 74.53 75.68 73.87 72.80 73.21 73.08 71.34 71.51 70.03 69.48 69.22 65.42 65.00 67.01 65.63 65.60 65.83 65.54 68.05 68.39 68.73 67.34 71.85 72.34 71.34 71.83 72.59 75.36
73.00 72.41 72.77 72.44 73.66 73.66 73.83 73.52 72.70 71.46 73.36 72.21 73.18 74.39 74.65 74.83 74.97 73.61 72.18 72.74 73.00 71.46 70.99 69.98 68.00 64.42 64.17 66.25 63.12 65.15 65.01 67.70 65.62 66.59 64.71 63.93 64.20 68.81 70.39 70.58 71.11 71.89 72.87
71.74 72.32 72.07 72.89 75.03 74.20 74.13 72.83 72.78 72.59 73.11 73.23 73.58 75.16 75.83 74.87 74.73 73.31 72.92 72.58 72.27 71.86 71.18 67.32 65.46 63.83 65.10 67.40 62.27 61.44 61.08 64.62 66.46 66.41 63.75 63.05 63.41 65.44 69.12 69.74 69.85 70.03 70.83
71.06 72.05 72.51 72.94 74.97 74.92 74.18 73.98 73.75 73.42 73.15 71.82 72.94 73.83 74.96 75.27 75.48 73.85 73.61 72.72 72.43 70.69 68.04 66.37 65.69 65.01 62.99 66.79 62.83 62.54 59.53 58.57 63.38 65.18 62.83 61.80 62.78 62.76 64.14 64.55 64.61 67.06 69.66
71.17 73.03 73.04 73.58 75.25 74.14 74.85 73.05 71.72 70.35 69.92 71.77 73.54 73.26 75.00 75.05 74.58 74.18 73.83 72.92 71.03 69.81 68.02 66.60 66.73 64.69 64.90 61.93 65.48 65.61 63.10 61.21 58.70 59.49 62.61 61.23 61.54 61.47 61.13 63.40 62.62 62.74 68.63
71.92 72.50 73.78 73.85 74.11 74.32 74.46 73.49 72.76 71.44 71.63 72.65 70.98 72.04 73.87 73.31 73.48 74.62 73.65 72.94 69.63 68.48 68.71 67.38 65.71 64.44 66.12 65.51 64.60 65.27 62.84 62.67 61.04 58.22 57.15 59.66 63.71 61.69 60.73 61.23 62.59 61.85 64.57
71.99 72.97 74.21 73.89 73.76 75.04 73.49 73.96 73.46 72.17 71.70 70.90 70.87 72.40 72.96 72.96 71.71 73.52 73.28 70.88 69.20 66.44 67.83 67.10 67.19 66.20 65.02 65.89 64.87 64.60 61.19 60.52 60.17 59.56 57.15 56.89 59.90 61.88 62.28 62.62 60.87 62.05 61.84

GFSSE_sfc_wetblb_024.txt.gz
Wetbulb
70.12 72.55 75.32 75.61 75.96 76.57 77.93 78.08 78.54 79.00 79.13 78.88 78.85 78.46 78.18 77.72 77.96 77.63 77.63 76.95 76.93 76.72 76.32 76.24 76.08 76.11 75.91 75.35 75.48 75.87 75.49 75.45 75.06 74.87 74.08 73.28 74.39 74.48 74.67 75.02 75.18 72.32 73.19
71.47 73.12 75.78 75.90 76.68 77.52 77.83 78.51 78.73 78.88 78.75 78.85 78.67 78.09 77.64 77.18 77.21 77.26 77.14 76.80 76.62 76.44 76.27 76.25 76.14 75.94 75.73 75.62 75.44 75.69 75.47 75.37 75.38 75.07 73.92 73.43 74.08 74.31 74.82 75.27 74.69 72.10 74.32
71.76 73.44 74.51 76.31 77.19 77.54 78.36 78.52 78.56 78.52 78.21 78.66 78.63 77.86 77.31 77.31 77.22 77.13 76.87 76.63 76.52 76.26 76.12 76.14 76.11 75.84 75.70 75.53 75.31 75.18 74.63 74.58 74.64 74.16 73.97 71.81 72.15 74.59 75.54 74.76 74.07 74.25 75.00
72.80 73.05 73.99 76.32 77.11 77.85 78.20 78.41 78.50 78.04 77.80 78.50 78.18 77.88 77.34 77.34 77.24 76.88 76.63 76.39 76.12 76.23 76.04 75.90 75.88 75.84 75.45 75.40 75.36 75.03 74.79 74.52 74.05 74.63 72.55 72.44 71.31 74.71 75.04 75.21 74.37 74.17 74.46
72.11 73.32 74.36 77.05 77.64 77.92 77.93 78.23 78.18 78.03 77.29 77.62 77.58 77.14 77.03 77.12 76.94 76.53 76.26 76.15 76.12 76.29 76.26 75.88 75.43 75.18 75.43 75.29 75.31 75.11 74.54 75.32 75.18 74.73 72.64 69.77 70.16 74.67 75.30 74.94 73.96 74.80 74.90
72.08 73.57 76.12 77.22 77.03 77.57 77.72 77.80 77.31 77.26 77.02 77.38 77.68 77.06 76.90 77.05 76.60 76.21 76.02 75.99 76.13 76.34 76.40 75.71 75.38 75.07 75.02 75.35 75.01 75.09 76.01 75.42 73.88 70.92 69.30 72.39 71.20 74.76 74.68 75.26 75.02 74.82 74.71
72.30 73.83 75.06 77.72 77.76 77.75 77.76 77.34 77.37 76.95 76.92 77.58 77.72 77.07 76.94 76.84 76.24 76.02 75.88 75.71 75.80 76.13 76.24 75.13 74.91 74.77 75.07 75.35 75.32 75.21 75.81 75.44 71.85 71.10 71.77 71.44 72.20 75.71 75.69 75.06 74.95 74.73 73.38
73.20 74.44 75.28 77.17 77.99 77.83 77.11 77.14 77.05 76.76 77.00 77.55 77.60 77.15 77.00 77.01 76.32 75.85 75.63 75.46 75.32 75.62 75.93 75.54 74.85 75.07 75.02 75.18 75.63 76.37 76.02 74.81 72.67 71.33 72.66 71.44 74.59 75.90 75.33 75.14 74.64 74.61 73.29
73.90 74.12 74.69 75.03 75.47 77.31 77.84 77.35 76.99 76.56 76.89 77.30 77.25 77.42 77.15 76.56 76.13 75.26 75.26 75.15 75.26 75.45 75.40 75.63 74.77 75.05 75.30 75.35 76.23 75.90 74.61 72.59 70.24 72.18 72.78 70.89 75.44 75.01 74.76 74.59 74.94 74.98 73.99
73.00 73.55 73.58 73.96 74.69 75.33 76.07 77.51 77.47 77.03 76.95 77.25 77.40 77.02 76.94 76.82 76.41 75.93 77.22 76.52 75.57 75.11 74.99 75.26 75.38 75.85 75.23 75.12 75.60 75.62 74.34 72.23 70.18 70.79 71.65 71.48 73.75 73.78 73.86 74.94 74.72 74.84 74.42
71.72 72.81 73.56 73.63 73.88 74.51 74.39 75.80 77.47 77.40 77.17 77.34 77.02 77.27 77.40 73.82 73.84 75.26 76.01 76.50 76.90 75.76 75.33 75.31 76.16 76.73 75.59 75.95 73.11 74.84 75.45 68.12 68.64 70.28 71.99 73.51 73.57 75.20 74.70 73.99 74.94 74.02 74.59
70.49 71.55 73.21 73.38 73.67 73.71 75.18 73.80 73.96 74.57 74.25 73.82 74.07 73.42 74.28 73.25 72.57 74.91 76.02 77.32 76.63 76.24 76.15 76.55 76.49 76.96 75.37 72.19 73.21 76.31 70.76 67.74 69.16 67.65 69.67 74.02 75.02 75.67 75.04 75.53 74.69 74.67 74.72
70.97 71.91 72.53 72.95 73.51 73.23 73.39 73.42 73.45 73.27 72.68 72.01 71.90 72.33 72.60 73.36 72.35 73.26 71.88 73.43 72.90 75.20 72.09 73.74 73.97 72.93 72.97 72.08 70.57 69.37 71.18 68.02 69.58 70.70 69.38 73.39 75.29 75.98 75.65 74.95 75.15 74.97 74.84
70.75 71.92 72.55 72.89 73.12 72.88 72.48 73.47 73.37 72.87 72.03 70.84 71.07 71.67 71.96 71.92 70.43 70.86 71.55 72.29 71.38 72.40 73.07 72.61 72.56 71.79 72.77 71.39 71.61 68.67 68.97 68.76 71.07 70.41 70.21 74.51 75.51 76.02 75.58 75.30 74.87 74.98 75.25
70.69 71.73 72.37 73.03 72.94 72.79 72.50 72.40 71.46 72.29 71.56 71.19 71.39 72.50 72.54 71.96 70.31 70.89 71.72 72.61 72.34 72.03 72.05 71.54 73.10 71.98 71.11 71.59 71.18 69.90 68.04 70.23 71.96 71.39 69.78 74.58 75.96 76.69 76.09 75.56 75.42 75.15 74.90
71.06 71.14 72.67 72.66 72.98 72.80 72.80 70.81 71.02 71.91 72.47 72.19 72.93 72.95 73.11 72.33 70.72 71.14 71.27 72.23 73.46 72.87 73.12 72.94 71.66 70.68 70.96 71.71 72.38 72.40 70.07 66.88 70.53 70.70 71.33 73.06 75.89 76.21 76.47 76.95 75.95 75.55 75.89
70.79 71.35 71.72 72.43 72.75 72.53 72.09 71.52 72.40 73.14 73.64 72.21 73.04 72.87 73.27 72.05 71.82 72.63 72.23 70.66 72.41 72.21 74.12 72.43 71.09 70.59 71.73 70.68 69.18 68.67 66.98 65.70 67.75 69.88 70.97 71.19 72.97 75.92 76.18 76.45 76.04 75.77 75.08
70.86 70.66 71.69 73.14 72.69 72.31 71.40 72.32 72.78 72.48 71.64 71.70 73.00 73.10 73.52 73.44 72.73 72.54 72.09 72.02 71.62 71.97 71.27 70.16 69.96 69.06 67.20 64.43 62.84 62.72 63.55 65.59 66.89 67.46 68.62 69.54 71.43 71.57 75.02 76.18 76.70 76.27 75.21
71.08 71.22 71.58 72.05 72.09 73.08 71.71 73.54 72.00 71.53 72.36 70.93 72.00 73.21 73.37 73.99 73.96 72.14 72.14 71.88 72.50 72.06 71.08 70.70 68.54 68.20 64.56 62.85 63.45 63.76 64.43 66.03 66.77 67.73 67.48 68.12 69.94 70.92 70.62 74.38 75.24 75.56 74.95
71.05 71.98 72.12 72.02 72.53 73.41 72.76 73.19 71.91 71.04 71.87 72.26 72.17 72.74 73.99 74.24 74.35 72.37 72.03 72.42 71.87 70.67 70.64 68.92 68.07 68.25 64.07 64.51 66.25 64.54 64.07 64.32 65.27 65.21 67.53 66.01 68.33 70.71 71.93 70.80 70.71 71.95 74.04
71.03 71.74 71.69 71.88 71.94 72.17 72.43 72.03 71.18 70.10 71.44 71.72 72.14 71.76 72.11 73.68 74.13 72.54 71.89 72.23 71.81 69.86 70.04 68.30 65.87 62.79 62.34 64.31 61.20 62.02 64.24 64.22 64.00 64.59 63.30 63.52 67.92 68.96 69.95 70.27 70.84 71.39 72.92
71.14 71.55 71.58 71.68 71.61 71.34 72.69 72.64 71.85 71.35 71.71 71.97 72.02 73.09 72.55 73.89 74.07 72.80 71.45 71.49 71.52 70.86 69.59 66.52 63.83 62.10 63.22 64.76 60.67 60.04 59.39 61.41 63.93 64.27 62.90 64.07 65.11 68.97 69.10 69.56 69.11 69.74 69.20
70.71 70.95 71.20 71.94 72.10 71.94 72.24 72.44 71.71 72.02 71.77 71.32 71.60 72.97 74.44 74.14 74.23 73.24 71.89 71.75 71.24 70.29 67.74 64.91 64.45 62.26 61.72 63.88 61.12 61.15 58.09 57.24 63.00 63.86 60.80 62.65 61.98 63.27 64.79 66.12 68.01 69.38 67.76
70.35 71.51 71.60 72.44 72.71 72.72 73.12 72.95 71.66 70.88 69.67 70.07 70.76 71.92 73.06 74.32 73.87 73.22 72.64 71.72 69.31 69.39 66.15 65.11 66.02 65.05 61.69 60.50 63.19 63.94 61.06 60.05 58.15 58.70 61.23 60.12 59.90 61.20 62.26 61.48 61.97 68.46 66.67
70.65 70.94 71.21 71.97 73.67 73.53 73.17 72.84 72.13 70.01 70.26 70.14 70.89 71.60 71.91 73.04 73.40 73.29 72.46 71.38 68.68 67.88 66.37 65.88 63.94 64.83 64.61 62.95 63.13 63.55 61.33 61.64 57.58 56.99 55.76 58.34 60.43 59.80 59.21 60.66 60.95 63.78 66.87
70.32 71.25 71.42 71.07 72.81 73.52 72.96 72.73 72.07 70.91 69.62 69.33 69.59 70.01 71.97 72.59 72.66 72.83 72.65 71.42 67.98 67.15 67.31 65.68 64.06 64.19 65.07 64.58 63.48 62.89 59.96 58.57 58.44 58.56 55.57 55.54 56.66 59.27 60.09 59.93 60.66 60.66 64.61